Date,TemperatureHighF,TemperatureAvgF,TemperatureLowF,DewpointHighF,DewpointAvgF,DewpointLowF,HumidityHigh,HumidityAvg,HumidityLow,PressureMaxIn,PressureMinIn,WindSpeedMaxMPH,WindSpeedAvgMPH,GustSpeedMaxMPH,PrecipitationSumIn
2013-1-1,52.3,42.4,37.2,44.0,40.1,35.9,97,92,69,30.07,29.42,6,2,13,0.45
2013-1-2,53.2,49.1,43.2,53.0,48.6,41.6,99,98,94,30.23,30.04,10,4,17,0.58
2013-1-3,52.9,51.8,51.3,52.6,51.1,50.3,99,97,94,30.55,30.25,14,4,23,0.11
2013-1-4,60.3,50.7,48.7,51.7,49.2,46.5,99,95,67,30.62,30.53,11,3,16,0.00
2013-1-5,51.3,49.6,45.9,50.8,48.9,45.3,99,97,93,30.56,30.39,12,4,19,0.15
2013-1-6,50.4,47.9,44.2,50.1,47.6,43.5,99,99,98,30.56,30.29,12,4,35,0.43
2013-1-7,50.5,49.7,49.1,50.3,49.4,48.8,99,99,99,30.30,30.09,10,5,21,0.96
2013-1-8,54.0,48.0,41.0,51.2,46.9,39.9,99,96,83,30.30,30.06,11,3,18,0.46
2013-1-9,50.5,41.2,37.4,46.5,40.4,36.9,99,97,82,30.30,30.17,4,2,8,0.00
2013-1-10,44.2,38.5,35.1,43.8,38.2,34.8,99,99,93,30.17,30.05,4,1,8,0.01
2013-1-11,48.6,43.5,40.3,45.6,41.8,40.0,99,94,85,30.11,30.03,7,3,12,0.06
2013-1-12,46.4,41.2,36.3,43.3,39.6,31.9,99,94,80,29.79,29.60,6,2,11,0.48
2013-1-13,42.8,39.9,35.6,42.3,38.3,30.3,98,94,79,29.87,29.61,14,4,24,0.45
2013-1-14,49.3,37.9,33.1,34.0,30.3,25.7,83,75,46,30.10,29.88,8,2,13,0.00
2013-1-15,44.8,38.2,32.4,40.7,34.0,28.1,91,85,73,30.02,29.93,8,3,14,0.00
2013-1-16,39.0,37.4,35.4,36.9,32.6,29.0,97,83,74,30.06,29.92,9,4,16,0.06
2013-1-17,41.0,38.5,36.0,37.9,35.2,32.7,97,88,73,30.07,29.82,11,3,22,0.06
2013-1-18,39.6,37.0,34.9,35.1,30.8,25.5,85,78,69,29.82,29.59,13,7,24,0.18
2013-1-19,43.0,38.0,35.2,36.2,32.0,28.1,85,79,67,29.81,29.60,13,7,21,0.02
2013-1-20,41.2,37.2,36.7,33.9,31.4,27.5,86,80,73,29.79,29.60,20,9,24,0.08
2013-1-21,43.3,37.8,36.3,38.1,34.5,28.7,94,88,79,29.61,29.52,20,13,31,1.35
2013-1-22,41.0,36.5,33.3,34.3,32.1,29.8,93,84,80,29.92,29.55,12,4,20,0.00
2013-1-23,46.6,38.8,32.7,35.4,33.5,29.3,92,81,60,30.06,29.91,11,4,17,0.00
2013-1-24,43.9,39.4,37.2,39.9,33.7,29.9,97,80,60,30.15,30.03,15,5,24,0.08
2013-1-25,43.7,39.2,37.2,43.4,38.3,36.0,99,97,88,30.03,29.44,20,9,28,0.64
2013-1-26,50.2,43.6,36.1,49.9,41.0,33.6,99,90,72,29.70,28.99,15,5,30,0.76
2013-1-27,50.4,42.9,38.5,50.1,40.5,35.8,99,91,76,29.35,28.88,15,6,30,0.25
2013-1-28,47.7,44.1,40.1,46.6,42.0,36.7,99,92,83,29.46,29.00,18,8,30,0.44
2013-1-29,48.4,46.3,44.6,47.6,43.2,37.8,97,89,75,29.47,29.18,13,5,28,0.27
2013-1-30,49.5,44.1,40.5,45.1,40.2,37.3,94,86,73,29.80,29.27,15,5,27,0.24
2013-1-31,51.3,44.7,40.8,43.4,40.4,37.9,99,85,70,29.76,29.31,17,6,35,0.87